Regional Weather Roundup
Issued by NWS

Home | Current Version | Previous Version | Text Only | Print | Product List | Glossary Off
Versions: 1 2 3 4 5 6 7 8 9 10 11 12 13 14 15 16 17 18 19 20 21 22 23 24 25 26 27 28 29 30 31 32 33 34 35 36 37 38 39 40 41 42 43 44 45 46 47 48 49 50

000
ASUS43 KBIS 260202
RWRND

NORTH DAKOTA REGIONAL WEATHER ROUNDUP
NATIONAL WEATHER SERVICE BISMARCK ND
900 PM CDT WED MAY 25 2016

NOTE: "FAIR" INDICATES FEW OR NO CLOUDS BELOW 12,000 FEET WITH NO
SIGNIFICANT WEATHER AND/OR OBSTRUCTIONS TO VISIBILITY.


NDZ001>003-009>011-017-260300-
NORTHWEST NORTH DAKOTA

CITY           SKY/WX    TMP DP  RH WIND       PRES   REMARKS
WILLISTON      CLEAR     56  49  77 NW6       29.82R
MINOT          CLOUDY    60  55  83 S6        29.75R
MINOT AFB      CLOUDY    59  57  94 E7        29.74R
$$

NDZ018>021-031>035-040>046-260300-
SOUTHWEST NORTH DAKOTA

CITY           SKY/WX    TMP DP  RH WIND       PRES   REMARKS
BISMARCK       CLOUDY    62  59  90 SW5       29.76S THUNDER
DICKINSON      CLEAR     54  42  64 NW9       29.81S
GARRISON         N/A     59  53  80 NE3       29.77S
HETTINGER ARPT CLEAR     56  43  61 NW8       29.84S
$$

NDZ004>008-012>016-024-026-027-054-260300-
NORTHEAST NORTH DAKOTA

CITY           SKY/WX    TMP DP  RH WIND       PRES   REMARKS
GRAND FORKS    CLOUDY    60  58  92 W12       29.66R
GRND FRKS AFB  CLOUDY    58  58 100 NW12      29.68R
DEVILS LAKE    CLOUDY    59  55  87 E6        29.76R
$$

NDZ022-023-025-028>030-036>039-047>053-260300-
SOUTHEAST NORTH DAKOTA

CITY           SKY/WX    TMP DP  RH WIND       PRES   REMARKS
FARGO          CLEAR     64  57  78 SW8       29.73R
JAMESTOWN      CLOUDY    61  57  87 CALM      29.75R
$$





USA.gov is the U.S. government's official web portal to all federal, state and local government web resources and services.